Location: Newark
(31.5350°N, 35.0986°E)
Time: 17:26:56
(UTC+00:00)

Vanguard 1 - Pass Details

Date: 28 September 2019
Orbit: 653 x 3830 km, 34.2° (Epoch: 20 October)

Event Time Altitude Azimuth Distance (km) Brightness Sun altitude
Rises 02:57:10 0° 288° (WNW) 7,973 - -8.1°
Exits shadow 02:59:17 - 287° (WNW) 7,565 14.0 -7.6°
Reaches altitude 10° 03:02:48 10° 287° (WNW) 6,868 13.8 -6.9°
Maximum altitude 03:24:47 75° 207° (SSW) 2,913 12.4 -2.2°
Drops below altitude 10° 03:37:35 10° 124° (SE) 4,297 14.5 0.5°
Sets 03:40:14 0° 122° (ESE) 4,971 14.9 1.1°
